Date,TemperatureHighF,TemperatureAvgF,TemperatureLowF,DewpointHighF,DewpointAvgF,DewpointLowF,HumidityHigh,HumidityAvg,HumidityLow,PressureMaxIn,PressureMinIn,WindSpeedMaxMPH,WindSpeedAvgMPH,GustSpeedMaxMPH,PrecipitationSumIn
2013-1-1,54,48,43,43,38,33,91,72,48,30.27,30.19,21,5,23,0.00
2013-1-2,57,49,42,40,38,34,86,67,41,30.23,30.13,15,4,15,0.00
2013-1-3,54,47,42,43,40,37,89,76,62,30.27,30.16,12,3,14,0.00
2013-1-4,57,50,45,41,40,38,84,70,51,30.29,30.17,11,3,12,0.00
2013-1-5,54,49,44,50,46,40,97,88,77,30.25,30.06,15,2,20,0.19
2013-1-6,53,48,44,48,45,43,96,89,72,30.19,30.04,13,2,17,0.23
2013-1-7,62,50,42,53,47,41,98,89,70,30.27,30.15,8,1,9,0.01
2013-1-8,60,51,46,51,47,45,95,86,65,30.25,30.12,9,1,10,0.00
2013-1-9,53,49,46,51,45,39,95,86,73,30.15,30.00,17,3,18,0.01
2013-1-10,52,47,44,40,37,35,80,70,55,30.19,30.08,13,3,15,0.00
2013-1-11,51,47,44,44,38,32,85,72,60,30.26,30.12,14,2,17,0.00
2013-1-12,53,45,37,40,35,26,92,70,35,30.25,30.14,12,1,12,0.00
2013-1-13,53,44,37,38,30,18,85,61,32,30.27,30.18,20,2,23,0.00
2013-1-14,53,46,39,36,25,16,81,46,28,30.40,30.22,18,3,21,0.00
2013-1-15,55,46,40,38,35,29,85,67,37,30.48,30.39,12,3,13,0.00
2013-1-16,57,48,41,41,38,35,86,69,48,30.43,30.25,12,2,12,0.00
2013-1-17,62,52,45,43,39,35,85,62,41,30.26,30.14,14,4,15,0.00
2013-1-18,64,55,49,40,37,33,71,53,34,30.22,30.12,15,4,17,0.00
2013-1-19,63,54,47,41,37,33,72,53,36,30.24,30.14,12,5,16,0.00
2013-1-20,64,54,47,41,36,32,74,51,31,30.22,30.12,14,5,15,0.00
2013-1-21,64,54,47,42,39,35,71,58,40,30.17,30.06,14,5,15,0.00
2013-1-22,60,54,49,45,42,40,77,64,49,30.11,29.99,16,4,16,0.00
2013-1-23,57,53,50,50,47,44,95,81,68,30.08,29.94,11,2,12,0.02
2013-1-24,60,54,50,53,51,49,95,89,77,30.19,30.06,12,2,12,0.02
2013-1-25,65,57,52,56,53,50,96,87,69,30.19,30.03,10,2,12,0.00
2013-1-26,56,52,49,51,47,43,98,84,68,30.09,30.00,21,4,21,0.00
2013-1-27,55,49,45,46,41,37,82,73,56,30.18,30.08,16,2,16,0.00
2013-1-28,57,50,46,47,43,38,88,77,62,30.30,30.16,15,2,16,0.00
2013-1-29,56,50,47,49,45,43,94,82,65,30.36,30.26,15,-3,15,0.00
2013-1-30,64,52,44,51,47,42,96,84,48,30.34,30.26,9,2,10,0.00
2013-1-31,64,53,47,50,47,45,91,79,57,30.28,30.17,12,2,14,0.00
2013-2-1,66,55,49,50,48,45,97,78,52,30.23,30.11,13,3,14,0.00
2013-2-2,56,51,48,50,48,46,97,91,80,30.30,30.22,11,2,11,0.00
2013-2-3,56,51,48,49,46,43,95,84,68,30.25,30.14,10,1,11,0.00
2013-2-4,54,49,47,49,47,45,97,92,82,30.18,30.07,9,2,13,0.00
2013-2-5,55,50,47,50,46,43,94,86,78,30.16,30.08,15,3,17,0.00
2013-2-6,55,49,42,48,45,40,95,86,66,30.20,30.13,13,2,16,0.00
2013-2-7,55,49,44,49,45,41,96,86,67,30.18,29.99,12,2,16,0.08
2013-2-8,53,48,42,46,40,27,95,77,38,30.03,29.94,13,2,16,0.16
2013-2-9,58,49,40,44,37,26,89,66,31,30.09,29.99,11,1,13,0.00
2013-2-10,59,49,41,49,42,35,94,80,42,30.12,30.03,9,1,10,0.00
2013-2-11,64,52,43,50,41,29,94,70,28,30.23,30.07,14,3,17,0.00
2013-2-12,61,50,44,48,46,39,96,87,46,30.36,30.23,8,1,9,0.00
2013-2-13,55,49,45,50,47,44,97,93,81,30.35,30.22,9,2,11,0.00
2013-2-14,67,54,47,51,47,45,98,80,47,30.24,30.15,10,2,14,0.00
2013-2-15,73,61,52,48,44,40,81,55,34,30.26,30.19,13,3,16,0.00
2013-2-16,66,56,50,52,48,45,95,75,52,30.22,30.05,15,4,16,0.00
2013-2-17,58,51,44,48,47,42,95,85,67,30.06,29.98,11,2,13,0.00
2013-2-18,53,49,48,47,43,39,94,80,67,30.04,29.96,18,5,18,0.00
2013-2-19,49,46,42,46,41,34,94,81,64,29.97,29.75,19,4,24,0.22
2013-2-20,55,47,38,46,40,34,92,77,63,30.07,29.86,14,2,16,0.00
2013-2-21,57,50,43,46,41,35,89,74,45,30.17,30.06,15,2,15,0.00
2013-2-22,57,49,43,47,44,40,96,84,60,30.26,30.17,15,2,20,0.00
2013-2-23,55,52,47,50,42,28,96,70,40,30.27,30.17,15,3,18,0.02
2013-2-24,59,52,48,45,35,23,91,56,27,30.26,30.17,14,3,17,0.00
2013-2-25,56,50,44,49,46,42,95,85,67,30.27,30.18,12,2,14,0.00
2013-2-26,60,50,43,46,41,27,94,73,30,30.22,30.15,15,3,17,0.00
2013-2-27,60,51,44,50,46,41,95,84,61,30.37,30.21,11,2,13,0.00
2013-2-28,60,52,49,53,50,48,97,92,78,30.45,30.36,11,2,14,0.01
2013-3-1,69,53,46,56,50,45,99,90,57,30.43,30.24,11,2,12,0.01
2013-3-2,68,55,49,53,51,48,97,85,59,30.24,30.08,12,3,12,0.00
2013-3-3,55,51,49,51,49,46,96,91,84,30.11,30.05,17,6,18,0.00
2013-3-4,53,49,47,46,45,43,93,87,75,30.16,30.06,17,3,17,0.00
2013-3-5,58,51,45,48,44,42,91,79,63,30.07,29.83,30,5,36,0.06
2013-3-6,55,51,46,50,46,43,94,82,68,30.07,29.84,25,4,28,0.10
2013-3-7,57,49,44,47,44,39,94,85,54,30.00,29.87,13,2,15,0.05
2013-3-8,53,49,45,47,45,44,96,86,78,30.05,29.84,24,4,26,0.05
2013-3-9,59,51,43,50,46,41,95,82,65,30.31,30.05,13,2,15,0.00
2013-3-10,61,51,44,51,48,43,97,87,58,30.35,30.26,11,2,13,0.01
2013-3-11,65,52,46,51,48,45,97,89,53,30.27,30.12,13,3,13,0.00
2013-3-12,63,51,48,52,49,47,99,92,68,30.16,30.08,12,3,14,0.00
2013-3-13,71,53,46,56,50,46,99,90,58,30.16,30.07,11,3,12,0.00
2013-3-14,55,50,47,51,49,47,99,95,85,30.19,30.09,13,4,14,0.00
2013-3-15,62,53,47,53,50,46,97,90,70,30.14,30.05,14,2,18,0.01
2013-3-16,61,53,48,52,49,47,98,88,68,30.13,30.04,16,3,18,0.00
2013-3-17,60,52,47,49,46,44,91,80,64,30.16,30.06,16,2,18,0.00
2013-3-18,58,51,47,49,47,45,95,87,69,30.14,30.04,13,3,17,0.00
2013-3-19,60,52,48,52,48,45,96,86,63,30.14,30.06,15,2,15,0.05
2013-3-20,59,53,50,54,51,46,98,91,74,30.14,30.06,14,2,16,0.13
2013-3-21,59,51,43,49,45,41,98,82,64,30.15,30.02,13,2,15,0.00
2013-3-22,58,51,43,47,43,31,94,75,43,30.13,30.03,15,2,15,0.00
2013-3-23,62,51,43,47,43,26,95,75,27,30.15,30.06,10,2,14,0.00
2013-3-24,57,51,47,49,47,45,95,87,73,30.10,29.99,15,4,17,0.00
2013-3-25,53,49,47,46,45,44,92,86,74,30.04,29.93,20,5,20,0.00
2013-3-26,56,51,48,49,47,45,93,86,75,30.02,29.96,13,4,19,0.00
2013-3-27,58,53,50,53,51,48,99,93,83,30.02,29.95,12,2,13,0.01
2013-3-28,60,55,52,56,53,51,99,93,81,30.09,30.00,11,2,13,0.01
2013-3-29,72,55,50,56,52,50,99,91,55,30.09,30.02,14,4,16,0.00
2013-3-30,64,55,51,55,53,51,99,91,66,30.08,29.97,21,3,22,0.09
2013-3-31,64,57,53,56,54,52,98,90,69,30.06,29.99,15,3,20,0.01
2013-4-1,60,56,52,55,54,51,98,92,79,30.15,30.04,11,2,13,0.49
2013-4-2,57,52,50,52,51,49,98,95,84,30.20,30.10,16,3,16,0.00
2013-4-3,74,53,49,57,50,48,99,92,48,30.15,30.00,15,3,17,0.00
2013-4-4,62,56,50,57,54,49,99,95,83,30.13,29.99,18,4,23,0.33
2013-4-5,61,55,52,56,54,52,99,95,78,30.20,30.12,14,3,15,0.01
2013-4-6,59,55,52,56,53,51,99,95,87,30.20,30.14,14,3,16,0.01
2013-4-7,59,55,52,56,52,48,97,90,79,30.18,29.85,25,5,28,0.04
2013-4-8,59,53,49,49,45,35,85,73,44,30.03,29.80,28,6,31,0.04
2013-4-9,67,59,52,51,44,33,87,58,32,30.10,30.03,12,2,17,0.00
2013-4-10,67,57,51,54,51,47,94,80,60,30.18,30.06,15,3,18,0.00
2013-4-11,63,54,50,50,49,47,94,83,62,30.08,29.85,17,3,21,0.00
2013-4-12,59,52,48,51,48,46,95,87,73,29.93,29.84,14,3,17,0.00
2013-4-13,58,53,48,51,47,44,92,80,69,29.91,29.83,23,4,23,0.00
2013-4-14,57,51,46,47,44,41,94,76,60,29.95,29.87,23,4,25,0.00
2013-4-15,54,49,46,48,43,40,97,79,64,29.97,29.87,29,6,34,0.01
2013-4-16,59,52,44,47,42,32,83,71,36,30.16,29.96,22,-5,22,0.00
2013-4-17,64,58,54,45,34,28,60,42,28,30.28,30.16,18,4,21,0.00
2013-4-23,57,52,50,51,49,47,93,87,78,29.95,29.89,17,-24,19,0.00
2013-4-24,56,52,48,51,49,46,95,90,79,29.95,29.84,16,4,19,0.00
2013-4-25,60,55,52,53,51,48,95,87,76,30.14,29.95,16,4,16,0.00
2013-4-26,57,53,50,50,49,47,92,87,78,30.25,30.13,18,5,19,0.00
2013-4-27,55,50,48,51,48,47,96,93,83,30.24,30.09,17,6,21,0.00
2013-4-28,61,55,50,53,50,48,94,85,72,30.09,29.89,12,4,14,0.00
2013-4-29,68,58,52,56,52,49,94,80,63,29.91,29.77,14,3,15,0.00
2013-4-30,61,56,50,52,49,46,91,78,66,29.87,29.80,14,3,15,0.00
2013-5-1,72,64,53,52,41,26,79,48,19,30.04,29.85,15,4,17,0.00
2013-5-2,88,73,62,47,41,27,47,34,12,30.14,30.08,13,-21,14,0.00
2013-5-3,72,60,53,55,51,41,92,73,46,30.08,29.80,14,3,15,0.00
2013-5-4,64,56,53,54,52,50,96,88,67,29.80,29.59,22,5,27,0.00
2013-5-5,57,55,54,50,50,49,88,81,76,29.63,29.61,15,4,25,0.00
2013-5-9,59,55,52,52,50,49,92,85,77,30.19,30.11,21,-17,21,0.00
2013-5-10,55,53,51,52,51,49,97,94,89,30.20,30.13,19,6,23,0.00
2013-5-11,59,53,50,54,51,49,98,94,82,30.17,30.07,15,4,17,0.00
2013-5-12,61,56,52,56,54,52,98,93,81,30.17,30.04,15,5,17,0.00
2013-5-13,60,55,52,56,53,51,98,92,80,30.11,29.96,18,6,22,0.00
2013-5-14,60,56,52,53,51,48,95,85,75,30.01,29.92,21,6,23,0.00
2013-5-15,59,54,51,52,50,48,92,86,75,30.07,29.99,24,9,25,0.00
2013-5-17,60,56,52,52,50,50,91,82,72,30.09,30.04,22,-35,24,0.00
2013-5-18,63,56,50,53,50,48,94,84,68,30.14,30.07,17,3,19,0.00
2013-5-21,62,62,62,52,52,52,70,70,70,30.12,30.12,18,18,0,0.00
2013-5-22,58,54,50,46,45,44,84,72,63,30.00,29.91,23,-8,23,0.00
2013-5-23,61,53,49,49,46,43,86,77,61,30.01,29.92,18,4,20,0.00
2013-5-24,61,54,48,50,47,45,91,79,63,30.01,29.95,17,4,21,0.00
2013-5-25,58,53,49,51,48,46,94,84,73,30.06,29.96,20,4,24,0.00
2013-5-26,60,55,52,54,53,50,98,92,80,30.14,30.05,16,6,18,0.00
2013-5-27,57,55,52,56,54,51,98,95,91,30.14,30.00,16,4,18,0.07
2013-5-28,63,57,53,58,55,52,99,93,77,30.01,29.93,15,0,18,0.09
2013-5-29,62,57,53,56,53,49,96,87,71,29.99,29.91,22,5,22,0.00
2013-5-30,53,52,50,50,49,48,94,91,88,29.95,29.94,10,2,12,0.00
2013-5-31,63,57,52,53,50,49,89,80,68,29.95,29.92,16,-48,17,0.00
2013-6-1,65,57,51,53,51,49,91,79,62,29.94,29.78,15,4,16,0.00
2013-6-2,59,54,51,53,51,50,95,89,79,29.80,29.70,18,5,20,0.00
2013-6-3,61,55,52,54,52,50,95,88,78,29.87,29.73,19,5,24,0.00
2013-6-4,59,56,54,54,53,52,94,90,83,29.96,29.86,18,6,19,0.00
2013-6-7,62,57,54,56,54,52,95,89,80,29.86,29.74,14,-9,16,0.00
2013-6-8,58,56,52,55,54,51,98,94,89,29.82,29.74,23,7,24,0.00
2013-6-9,59,56,55,56,55,55,99,96,90,29.90,29.81,17,6,20,0.00
2013-6-10,64,58,55,56,54,53,98,89,72,29.96,29.81,17,5,20,0.01
2013-6-11,64,58,54,56,53,51,94,86,72,29.99,29.90,15,3,16,0.00
2013-6-12,64,57,52,54,52,50,93,82,67,30.01,29.91,19,4,19,0.00
2013-6-13,53,52,51,50,49,48,91,90,89,30.03,30.00,10,2,12,0.00
2013-6-17,65,60,55,58,56,54,97,87,78,30.10,30.03,24,-19,25,0.00
2013-6-18,61,56,54,55,54,52,97,90,80,30.05,29.99,19,6,23,0.00
2013-6-19,54,54,54,52,52,52,93,92,92,30.02,30.01,10,4,12,0.00
2013-6-23,61,58,54,60,58,54,99,99,98,29.86,29.82,12,-29,14,0.01
2013-6-24,59,56,54,58,56,53,100,98,93,29.91,29.80,11,2,12,0.01
2013-6-25,70,63,57,66,61,57,99,95,83,29.98,29.88,15,3,18,0.21
2013-6-26,72,64,59,65,61,59,99,92,76,30.06,29.96,13,2,13,0.05
2013-6-27,71,62,56,62,58,55,99,90,72,30.09,30.02,14,3,16,0.00
2013-6-28,68,61,57,60,58,56,98,89,74,30.04,29.92,17,5,17,0.00
2013-6-29,69,63,58,60,57,55,92,82,70,29.92,29.81,16,5,17,0.00
2013-6-30,64,60,57,58,57,55,95,89,81,29.86,29.78,15,6,19,0.00
2013-7-1,68,59,55,60,56,54,98,90,71,29.87,29.80,17,5,20,0.00
2013-7-2,64,58,56,59,57,55,98,94,83,29.93,29.83,20,6,22,0.00
2013-7-3,69,60,57,61,58,56,99,92,74,29.92,29.78,19,5,19,0.00
2013-7-4,66,62,57,60,57,53,98,85,71,29.80,29.70,19,5,20,0.00
2013-7-5,60,57,54,55,53,52,94,89,80,29.79,29.72,22,7,22,0.00
2013-7-6,60,56,54,55,53,52,94,91,82,29.83,29.76,19,6,23,0.00
2013-7-7,62,57,55,56,54,53,94,89,80,29.87,29.79,17,6,21,0.00
2013-7-8,61,57,54,56,54,53,97,90,81,29.99,29.87,16,6,17,0.00
2013-7-9,61,56,52,58,54,52,99,94,82,30.04,29.96,16,4,18,0.00
2013-7-10,60,56,53,56,54,52,99,95,86,29.99,29.92,19,6,22,0.00
2013-7-11,58,54,52,54,53,51,98,94,87,29.96,29.90,21,6,22,0.00
2013-7-12,58,56,54,55,53,52,95,91,84,29.96,29.90,18,6,19,0.00
2013-7-13,62,57,54,56,54,52,95,90,80,29.98,29.90,18,6,19,0.00
2013-7-14,58,55,53,54,53,52,98,93,87,30.01,29.92,18,6,19,0.00
2013-7-15,59,55,51,56,53,51,98,94,86,29.94,29.85,16,6,19,0.00
2013-7-16,63,58,54,58,55,52,97,92,80,30.03,29.87,16,4,16,0.01
2013-7-17,62,58,55,57,56,54,96,91,82,30.10,30.02,17,5,18,0.00
2013-7-18,59,56,54,56,54,53,98,95,88,30.07,29.96,18,6,19,0.00
2013-7-19,60,55,54,56,54,52,98,94,87,29.96,29.85,18,6,20,0.00
2013-7-20,58,54,52,55,53,52,98,95,87,29.87,29.77,18,6,19,0.00
2013-7-21,57,55,53,55,53,52,98,95,89,29.90,29.78,18,6,19,0.00
2013-7-22,60,57,54,58,56,54,99,96,90,29.97,29.89,16,5,17,0.00
2013-7-23,64,59,55,59,57,55,99,94,81,30.02,29.94,16,4,16,0.00
2013-7-24,62,57,54,58,56,54,100,95,84,30.00,29.92,18,5,18,0.00
2013-7-25,59,55,53,56,54,52,99,96,88,30.04,29.94,19,6,21,0.00
2013-7-26,60,56,53,57,55,53,99,96,88,30.11,30.02,19,6,19,0.00
2013-7-27,58,56,54,56,55,53,99,97,92,30.04,29.88,17,6,21,0.00
2013-7-28,58,55,54,55,54,53,99,96,89,29.90,29.83,19,7,22,0.01
2013-7-29,60,57,55,56,55,53,95,92,86,30.02,29.86,20,6,22,0.00
2013-7-30,60,57,53,56,54,52,97,92,87,30.11,30.02,18,5,19,0.00
2013-7-31,62,57,53,57,54,52,98,92,81,30.10,30.01,19,6,23,0.00
2013-8-1,62,58,55,57,55,53,95,90,82,30.09,29.96,22,7,23,0.00
2013-8-2,60,56,52,55,54,51,98,93,83,29.99,29.92,20,6,21,0.00
2013-8-3,59,55,52,56,54,52,98,94,85,29.99,29.93,17,6,18,0.00
2013-8-4,58,55,53,55,54,52,99,94,86,30.02,29.97,16,5,21,0.00
2013-8-5,59,55,53,55,54,52,98,94,85,30.04,29.96,17,5,19,0.01
2013-8-6,61,57,54,57,55,53,97,92,84,30.04,29.98,16,5,22,0.00
2013-8-7,65,60,56,58,57,55,97,91,78,30.11,30.03,16,4,17,0.01
2013-8-8,65,59,55,59,57,53,99,92,75,30.04,29.95,20,3,20,0.05
2013-8-9,64,58,55,59,56,53,98,93,81,30.00,29.92,15,5,18,0.03
2013-8-10,63,59,56,59,57,55,97,92,84,30.06,29.99,18,5,18,0.00
2013-8-11,59,56,55,57,55,54,99,96,90,30.03,29.96,17,6,18,0.00
2013-8-12,63,57,55,58,56,54,99,95,85,30.01,29.95,17,6,18,0.00
2013-8-13,68,60,56,59,56,54,95,88,74,29.99,29.92,17,5,19,0.00
2013-8-14,67,60,55,62,57,54,97,92,81,29.99,29.91,18,6,19,0.00
2013-8-15,68,62,59,64,61,58,99,95,86,29.97,29.91,15,5,19,0.00
2013-8-16,63,60,58,61,59,57,100,97,92,30.01,29.94,18,5,18,0.00
2013-8-17,68,60,57,62,58,56,98,92,82,29.99,29.87,18,5,19,0.00
2013-8-18,64,59,57,60,58,56,98,94,85,29.89,29.79,14,4,15,0.00
2013-8-19,63,59,56,59,58,55,99,95,86,29.91,29.80,17,6,19,0.00
2013-8-20,64,60,57,59,58,56,99,93,84,29.91,29.84,21,6,22,0.00
2013-8-21,65,60,58,59,57,56,93,88,78,29.95,29.87,18,5,19,0.00
2013-8-22,65,61,58,58,56,55,91,85,75,29.98,29.89,18,5,21,0.00
2013-8-23,61,58,56,57,56,54,94,92,89,29.93,29.82,18,6,20,0.00
2013-8-24,65,60,56,61,58,55,97,93,84,29.91,29.83,19,6,22,0.00
2013-8-25,68,63,60,64,61,59,99,94,88,29.94,29.88,15,3,15,0.01
2013-8-26,66,62,59,60,59,57,97,90,79,30.01,29.90,15,4,17,0.01
2013-8-27,64,59,55,61,58,54,99,95,89,29.90,29.83,16,4,21,0.00
2013-8-28,68,62,58,64,60,57,100,96,87,29.94,29.85,15,4,18,0.00
2013-8-29,69,63,60,64,62,60,99,95,83,30.06,29.94,15,4,15,0.01
2013-8-30,70,63,59,64,61,58,100,91,78,30.04,29.92,15,4,16,0.00
2013-8-31,64,59,56,61,58,56,99,96,89,29.99,29.90,17,6,21,0.00
2013-9-1,66,61,57,63,59,56,98,95,87,29.95,29.89,15,5,16,0.00
2013-9-2,71,65,61,65,62,60,99,93,81,29.96,29.88,16,4,17,0.00
2013-9-3,68,63,59,64,61,58,99,93,79,30.01,29.93,18,5,20,0.00
2013-9-4,70,64,60,64,61,59,97,91,79,30.03,29.94,20,4,20,0.00
2013-9-5,69,63,59,62,59,57,97,88,76,30.01,29.94,18,3,23,0.00
2013-9-6,78,66,55,62,57,54,96,75,46,29.98,29.82,9,1,10,0.00
2013-9-7,76,64,56,62,58,55,98,81,56,29.87,29.81,14,3,15,0.00
2013-9-8,62,58,55,60,57,54,99,97,89,29.87,29.78,15,5,16,0.00
2013-9-9,62,58,54,60,57,54,100,97,88,29.82,29.72,17,5,18,0.00
2013-9-10,66,61,58,62,60,57,100,94,84,29.90,29.74,20,6,23,0.02
2013-9-11,68,64,62,61,60,59,93,87,76,29.99,29.89,14,3,17,0.00
2013-9-12,68,62,58,62,60,57,98,94,81,29.98,29.89,18,4,20,0.01
2013-9-13,63,58,56,59,57,55,98,95,88,29.91,29.78,20,6,23,0.00
2013-9-14,65,59,55,59,57,55,99,94,83,29.83,29.75,23,8,23,0.00
2013-9-15,68,62,57,61,58,55,97,88,75,29.87,29.77,15,5,18,0.00
2013-9-16,67,61,58,60,58,56,98,91,76,29.90,29.79,15,4,21,0.00
2013-9-17,65,60,57,58,56,53,97,87,74,29.88,29.81,26,5,26,0.00
2013-9-18,71,60,52,59,54,50,96,82,58,29.91,29.83,13,2,15,0.00
2013-9-19,68,59,53,58,55,52,95,85,67,29.86,29.75,15,3,16,0.00
2013-9-20,68,61,54,64,59,53,98,93,83,29.86,29.77,16,4,16,0.00
2013-9-21,66,62,58,62,59,56,98,93,83,29.90,29.80,15,4,21,0.32
2013-9-22,67,60,55,59,57,54,99,89,75,29.99,29.89,17,2,18,0.00
2013-9-23,74,63,55,63,58,53,96,85,62,30.01,29.94,13,2,14,0.00
2013-9-24,67,61,57,60,56,52,94,85,76,30.00,29.90,21,4,24,0.00
2013-9-25,63,59,56,54,52,49,90,78,68,29.94,29.82,22,4,24,0.00
2013-9-26,68,58,51,53,49,42,87,73,42,29.97,29.83,12,2,16,0.00
2013-9-27,71,62,53,53,48,39,88,62,32,30.09,29.97,11,2,13,0.00
2013-9-28,70,59,51,58,54,47,95,82,50,30.08,30.01,16,2,16,0.00
2013-9-29,70,62,56,63,60,55,99,92,77,30.10,30.05,12,2,13,0.00
2013-9-30,68,62,57,64,60,48,99,93,65,30.06,29.97,10,3,11,0.00
2013-10-1,66,59,54,55,53,49,95,81,63,30.01,29.91,12,2,14,0.01
2013-10-2,65,58,52,55,52,48,95,81,66,30.01,29.92,19,2,19,0.00
2013-10-3,69,59,50,52,46,35,88,65,29,30.08,29.95,19,2,21,0.00
2013-10-4,81,69,62,44,36,26,43,31,13,30.07,29.96,22,5,27,0.00
2013-10-5,86,70,62,46,36,26,54,31,12,30.17,30.07,12,3,12,0.00
2013-10-6,85,68,60,46,38,29,58,35,15,30.10,29.98,10,3,12,0.00
2013-10-7,71,61,55,53,47,39,88,61,34,29.98,29.88,13,3,15,0.00
2013-10-8,64,56,52,54,51,50,94,84,68,29.91,29.71,13,2,14,0.00
2013-10-9,64,56,50,51,49,45,93,79,53,29.77,29.62,11,2,12,0.00
2013-10-10,60,54,52,53,51,50,94,88,77,30.01,29.76,17,4,19,0.00
2013-10-11,56,53,50,51,50,49,96,90,82,30.09,29.99,14,3,16,0.00
2013-10-12,57,53,50,52,50,48,96,90,80,30.01,29.90,15,4,16,0.00
2013-10-13,66,56,50,55,52,46,97,86,50,30.06,29.91,11,2,11,0.00
2013-10-14,74,60,50,55,49,44,96,70,34,30.11,30.00,11,2,11,0.01
2013-10-15,78,63,54,50,44,36,82,54,22,30.03,29.95,14,2,16,0.00
2013-10-16,81,66,56,51,44,36,80,50,20,30.07,29.98,11,3,12,0.00
2013-10-17,74,62,53,52,46,38,92,59,31,30.06,29.96,10,3,11,0.00
2013-10-18,57,52,50,53,50,49,98,93,84,30.06,29.99,12,3,14,0.00
2013-10-19,70,54,48,56,51,48,100,90,51,30.07,30.00,13,2,13,0.00
2013-10-20,55,51,48,52,50,48,99,96,90,30.03,29.93,14,4,15,0.00
2013-10-21,55,51,50,52,50,49,99,96,87,30.01,29.93,13,3,14,0.00
2013-10-22,59,52,50,56,50,49,99,97,86,30.02,29.94,14,3,15,0.00
2013-10-23,56,51,48,54,50,48,100,97,87,29.98,29.92,17,4,17,0.00
2013-10-24,59,53,50,52,50,49,97,91,78,30.11,29.97,12,3,13,0.00
2013-10-25,64,56,49,55,52,47,96,86,71,30.16,30.07,10,2,11,0.00
2013-10-26,64,54,50,56,52,50,98,93,75,30.14,30.02,13,2,14,0.00
2013-10-27,56,53,50,52,51,49,99,92,84,30.04,29.68,26,8,32,0.01
2013-10-28,58,54,51,52,51,48,93,87,77,29.84,29.67,17,4,24,0.01
2013-10-29,60,55,52,53,51,48,94,86,69,30.05,29.84,11,2,13,0.00
2013-10-30,65,54,48,54,50,46,97,87,65,30.15,30.05,10,1,11,0.00
2013-10-31,69,56,49,54,50,46,94,83,55,30.17,30.07,9,2,10,0.00
2013-11-1,73,59,50,52,50,47,92,75,43,30.13,30.00,11,2,14,0.00
2013-11-2,60,54,50,56,51,48,98,91,83,30.02,29.91,15,3,15,0.00
2013-11-3,60,53,46,49,46,41,94,78,52,30.06,29.91,12,1,13,0.00
2013-11-4,66,54,44,48,44,38,90,71,43,30.07,29.91,12,1,13,0.00
2013-11-5,68,58,47,51,44,35,93,64,30,30.21,30.05,9,1,9,0.00
2013-11-6,69,61,52,50,44,41,93,56,38,30.25,30.14,14,2,14,0.00
2013-11-7,70,59,54,54,49,42,95,71,42,30.16,30.07,10,2,12,0.00
2013-11-8,67,56,50,58,52,49,99,88,65,30.08,29.96,11,2,12,0.00
2013-11-9,69,56,49,53,51,47,96,85,52,30.04,29.96,14,3,15,0.01
2013-11-10,61,55,52,53,52,50,95,88,74,30.12,30.01,13,2,15,0.00
2013-11-11,61,56,53,54,52,50,91,86,75,30.16,30.06,13,2,13,0.00
2013-11-12,67,59,55,55,53,51,94,81,62,30.26,30.14,12,1,13,0.00
2013-11-13,62,55,52,58,53,51,99,95,82,30.24,30.10,14,3,14,0.00
2013-11-14,57,54,52,55,52,48,99,94,80,30.11,29.88,12,2,14,0.01
2013-11-15,60,54,49,50,49,45,93,83,58,29.90,29.73,11,2,13,0.00
2013-11-16,60,53,47,52,49,44,95,86,60,29.93,29.75,16,2,22,0.00
2013-11-17,58,53,50,51,49,48,96,87,72,30.09,29.92,11,2,12,0.00
2013-11-18,57,53,47,52,49,46,97,89,78,30.15,30.08,12,2,13,0.00
2013-11-19,59,57,54,57,54,50,97,90,81,30.09,29.93,14,2,14,0.25
2013-11-20,58,56,52,58,55,50,99,97,92,29.93,29.83,13,3,14,1.07
2013-11-21,62,56,51,52,40,28,97,60,29,29.97,29.89,24,4,25,0.01
2013-11-22,72,61,56,44,27,17,62,29,16,30.01,29.89,24,5,28,0.00
2013-11-23,67,58,50,51,36,23,94,50,19,30.09,29.94,21,4,23,0.00
2013-11-24,64,53,48,49,47,44,97,82,51,30.24,30.09,9,1,11,0.01
2013-11-25,64,54,47,49,46,44,94,77,53,30.31,30.24,13,2,13,0.00
2013-11-26,62,55,51,47,45,43,81,69,53,30.25,30.02,11,3,13,0.00
2013-11-27,63,56,51,48,46,45,80,71,56,30.02,29.83,14,2,14,0.00
2013-11-28,69,57,51,50,46,44,82,69,43,30.06,29.85,10,2,10,0.00
2013-11-29,69,55,50,55,50,44,96,83,42,30.21,30.06,11,2,12,0.00
2013-11-30,56,51,48,55,50,47,99,96,87,30.27,30.19,7,1,8,0.01
2013-12-1,66,55,48,53,50,47,99,86,52,30.33,30.21,7,2,9,0.01
2013-12-2,59,53,50,55,52,49,99,95,83,30.22,29.96,13,3,17,0.01
2013-12-3,55,51,48,55,40,26,99,67,43,29.95,29.84,21,3,22,0.01
2013-12-4,52,45,39,35,30,24,80,57,36,30.08,29.94,11,1,14,0.00
2013-12-5,51,43,36,36,30,18,87,61,27,30.16,30.07,13,2,16,0.00
2013-12-6,51,46,37,50,40,31,95,80,50,30.19,29.92,25,3,26,0.26
2013-12-7,50,45,40,47,33,27,95,64,44,30.25,29.92,15,4,18,0.27
2013-12-8,47,41,37,33,27,20,83,59,36,30.32,30.22,17,4,21,0.00
2013-12-9,52,42,33,34,24,15,75,51,23,30.41,30.31,19,4,22,0.00
2013-12-10,54,46,40,34,32,28,77,60,38,30.40,30.20,15,4,16,0.00
2013-12-11,57,48,42,38,35,29,79,61,39,30.24,30.16,15,4,16,0.00
2013-12-12,61,50,45,46,40,36,92,70,40,30.26,30.16,13,2,14,0.00
2013-12-13,60,49,43,48,44,39,97,86,46,30.33,30.22,9,1,9,0.00
2013-12-14,62,51,43,48,42,38,98,75,41,30.38,30.30,14,2,16,0.01
2013-12-15,61,53,47,43,41,39,79,65,45,30.35,30.22,13,4,14,0.00
2013-12-16,68,57,50,43,40,36,71,54,31,30.23,30.10,15,5,17,0.00
2013-12-17,64,57,52,44,42,39,66,57,46,30.16,30.01,15,4,17,0.00
2013-12-18,54,51,48,50,46,41,92,83,62,30.02,29.76,17,3,17,0.00
2013-12-19,56,51,46,47,40,26,88,67,37,29.94,29.72,13,2,16,0.00
2013-12-20,58,49,41,47,36,23,90,62,28,30.01,29.92,10,1,10,0.00
2013-12-21,58,51,45,52,47,43,95,88,73,30.08,29.96,8,1,9,0.00
2013-12-22,65,53,47,49,45,41,97,77,44,30.28,30.07,8,1,10,0.01
2013-12-23,63,53,47,46,43,42,90,69,48,30.38,30.27,11,2,12,0.00
2013-12-24,70,54,48,47,45,42,89,70,42,30.33,30.19,10,2,11,0.00
2013-12-25,65,55,48,46,43,42,83,65,46,30.27,30.18,17,4,20,0.00
2013-12-26,66,56,49,46,41,36,81,59,39,30.24,30.15,14,4,14,0.00
2013-12-27,59,54,49,44,41,38,77,63,51,30.21,30.11,14,3,17,0.00
2013-12-28,60,51,45,48,42,38,90,73,45,30.14,30.02,8,1,9,0.00
2013-12-29,67,56,48,40,33,23,76,44,20,30.16,30.07,18,4,22,0.00
2013-12-30,62,53,49,50,43,38,94,71,47,30.24,30.15,12,3,13,0.00
2013-12-31,60,50,45,49,46,43,96,87,56,30.27,30.15,7,1,8,0.00
2014-1-1,63,51,45,50,45,39,93,79,42,30.21,30.12,11,2,12,0.00
2014-1-2,65,56,49,44,40,36,74,56,36,30.17,30.03,13,2,14,0.00